{"data":{"norad_id":68150,"epoch":"2026-05-25T01:29:48.668640Z","epoch_age_seconds":69852,"freshness":"FRESH","line1":"1 68150U 26049J   26145.06236885  .00013569  00000+0  42188-3 0  9996","line2":"2 68150  97.2840 166.7519 0001535 100.7418 259.3997 15.33444589 11352","mean_motion":15.33444589,"eccentricity":0.0001535,"inclination_deg":97.284,"raan_deg":166.7519,"arg_perigee_deg":100.7418,"mean_anomaly_deg":259.3997,"bstar":0.00042188,"rev_number":1135,"period_min":93.906229825954,"perigee_km":464.49389223075,"apogee_km":466.59490241973,"semimajor_km":6843.6813973252,"source":"CELESTRAK","updated_at":"2026-05-25T13:38:21.847989Z"}}